TimeCST,TemperatureF,Dew PointF,Humidity,Sea Level PressureIn,VisibilityMPH,Wind Direction,Wind SpeedMPH,Gust SpeedMPH,PrecipitationIn,Events,Conditions,WindDirDegrees,DateUTC
12:56 AM,33.1,24.1,70,30.25,-9999.0,NE,12.7,19.6,N/A,,Unknown,50,2012-11-10 06:56:00
1:56 AM,34.0,24.1,67,30.20,-9999.0,NE,17.3,25.3,N/A,,Unknown,50,2012-11-10 07:56:00
2:56 AM,35.1,25.0,67,30.19,-9999.0,ENE,15.0,24.2,N/A,,Unknown,60,2012-11-10 08:56:00
3:56 AM,36.0,28.0,73,30.15,-9999.0,ENE,24.2,33.4,N/A,,Unknown,70,2012-11-10 09:56:00
4:56 AM,36.0,27.0,70,30.12,-9999.0,NE,12.7,29.9,N/A,,Unknown,50,2012-11-10 10:56:00
5:56 AM,36.0,28.0,73,30.11,-9999.0,ENE,18.4,26.5,N/A,,Unknown,60,2012-11-10 11:56:00
6:56 AM,36.0,30.9,82,30.12,-9999.0,ENE,15.0,25.3,0.01,,Unknown,60,2012-11-10 12:56:00
7:56 AM,37.0,34.0,89,30.09,-9999.0,NE,20.7,32.2,0.04,,Unknown,50,2012-11-10 13:56:00
8:56 AM,37.9,35.1,89,30.06,-9999.0,ENE,19.6,35.7,0.01,,Unknown,60,2012-11-10 14:56:00
9:56 AM,37.0,34.0,89,30.03,-9999.0,NE,23.0,38.0,0.01,,Unknown,50,2012-11-10 15:56:00
10:56 AM,37.0,34.0,89,29.98,-9999.0,NE,16.1,34.5,0.02,,Unknown,50,2012-11-10 16:56:00
11:56 AM,39.0,35.1,86,29.93,-9999.0,ENE,21.9,35.7,0.05,,Unknown,60,2012-11-10 17:56:00
12:56 PM,39.0,36.0,89,29.88,-9999.0,ENE,23.0,35.7,0.04,,Unknown,60,2012-11-10 18:56:00
1:56 PM,41.0,37.9,89,29.84,-9999.0,ENE,20.7,39.1,0.04,,Unknown,60,2012-11-10 19:56:00
2:56 PM,42.1,37.9,85,29.83,-9999.0,ENE,20.7,33.4,0.02,,Unknown,60,2012-11-10 20:56:00
3:56 PM,43.0,39.9,89,29.81,-9999.0,ENE,20.7,39.1,0.03,,Unknown,60,2012-11-10 21:56:00
4:56 PM,43.0,39.9,89,29.80,-9999.0,ENE,20.7,32.2,0.04,,Unknown,60,2012-11-10 22:56:00
5:56 PM,43.0,39.9,89,29.78,-9999.0,ENE,17.3,28.8,0.03,,Unknown,60,2012-11-10 23:56:00
6:56 PM,43.0,41.0,93,29.77,-9999.0,ENE,18.4,27.6,0.01,,Unknown,60,2012-11-11 00:56:00
7:56 PM,44.1,41.0,89,29.74,-9999.0,NE,12.7,25.3,0.02,,Unknown,40,2012-11-11 01:56:00
8:56 PM,44.1,41.0,89,29.72,-9999.0,ENE,12.7,21.9,N/A,,Unknown,60,2012-11-11 02:56:00
9:56 PM,44.1,41.0,89,29.70,-9999.0,ENE,15.0,25.3,N/A,,Unknown,60,2012-11-11 03:56:00
10:56 PM,45.0,42.1,90,29.65,-9999.0,NE,16.1,25.3,N/A,,Unknown,50,2012-11-11 04:56:00
11:56 PM,45.0,43.0,93,29.62,-9999.0,ENE,16.1,27.6,N/A,,Unknown,60,2012-11-11 05:56:00